COOK73 UITT-ULAA

Flight info

Callsign COOK73
Flight time N/A
Altitude 38000
Route NONLI4K NONLI W273 LIMKI G124 TIKUS G490 PTG R809 TARSA G719 LAGNI B946 NAREK T821 GUMSA GUMSA3M
Aircraft C25C/M-SDE2E3FGHRWXY/LB1

Departure

Time 2026-04-12 21:11
Airport Ust-Kut Airport (UITT)

Arrival

Time N/A
Airport Talagi Airport (ULAA)
Time Latitude Longitude Altitude Speed Heading
2026-04-12 21:11 56.91353 105.75905 10350 ft 210 kts 302°
2026-04-12 21:11 56.92237 105.73771 11531 ft 211 kts 302°
2026-04-12 21:11 56.93131 105.71631 12689 ft 212 kts 302°
2026-04-12 21:12 56.94029 105.69479 13803 ft 214 kts 302°
2026-04-12 21:12 56.94934 105.67310 14762 ft 215 kts 302°
2026-04-12 21:12 56.95831 105.65159 15686 ft 216 kts 302°
2026-04-12 21:12 56.96747 105.62956 16630 ft 218 kts 302°
2026-04-12 21:13 56.97668 105.60744 17611 ft 219 kts 302°
2026-04-12 21:13 56.98597 105.58511 18606 ft 221 kts 302°
2026-04-12 21:13 56.99532 105.56255 19508 ft 222 kts 302°
2026-04-12 21:13 57.00473 105.53991 20401 ft 224 kts 302°
2026-04-12 21:14 57.01418 105.51712 21277 ft 225 kts 303°
2026-04-12 21:14 57.02369 105.49411 22117 ft 227 kts 303°
2026-04-12 21:14 57.03330 105.47090 22931 ft 229 kts 303°
2026-04-12 21:14 57.04294 105.44760 23715 ft 230 kts 303°
2026-04-12 21:15 57.05265 105.42402 24330 ft 233 kts 303°
2026-04-12 21:15 57.06248 105.40021 24931 ft 235 kts 303°
2026-04-12 21:15 57.07241 105.37613 25527 ft 237 kts 303°
2026-04-12 21:15 57.08228 105.35211 26102 ft 240 kts 303°
2026-04-12 21:16 57.09241 105.32747 26662 ft 242 kts 303°
2026-04-12 21:16 57.10264 105.30262 27212 ft 245 kts 303°
2026-04-12 21:16 57.11298 105.27740 27754 ft 247 kts 303°
2026-04-12 21:16 57.12341 105.25195 28290 ft 250 kts 303°
2026-04-12 21:17 57.13391 105.22636 28878 ft 250 kts 303°
2026-04-12 21:17 57.14435 105.20082 29495 ft 249 kts 303°
2026-04-12 21:17 57.15474 105.17537 30101 ft 248 kts 303°
2026-04-12 21:17 57.16513 105.14996 30585 ft 248 kts 303°
2026-04-12 21:18 57.17551 105.12448 31043 ft 249 kts 303°
2026-04-12 21:18 57.18591 105.09894 31486 ft 249 kts 303°
2026-04-12 21:18 57.19633 105.07337 31937 ft 250 kts 303°
2026-04-12 21:18 57.20676 105.04768 32411 ft 250 kts 303°
2026-04-12 21:19 57.21718 105.02200 32850 ft 251 kts 303°
2026-04-12 21:19 57.22765 104.99624 33290 ft 251 kts 303°
2026-04-12 21:19 57.23811 104.97040 33738 ft 252 kts 303°
2026-04-12 21:19 57.24859 104.94448 34148 ft 252 kts 303°
2026-04-12 21:20 57.25897 104.91884 34501 ft 253 kts 303°
2026-04-12 21:20 57.26950 104.89278 34861 ft 253 kts 303°
2026-04-12 21:20 57.28003 104.86665 35226 ft 254 kts 303°
2026-04-12 21:20 57.29057 104.84049 35577 ft 254 kts 303°
2026-04-12 21:21 57.30114 104.81426 35929 ft 255 kts 303°
2026-04-12 21:21 57.31174 104.78789 36281 ft 255 kts 303°
2026-04-12 21:21 57.32233 104.76151 36636 ft 256 kts 303°
2026-04-12 21:21 57.33295 104.73507 36987 ft 256 kts 303°
2026-04-12 21:22 57.34357 104.70857 37350 ft 256 kts 303°
2026-04-12 21:22 57.35420 104.68198 37698 ft 257 kts 303°
2026-04-12 21:22 57.36490 104.65524 37941 ft 261 kts 303°
2026-04-12 21:22 57.37592 104.62763 38000 ft 272 kts 303°
2026-04-12 21:23 57.38737 104.59889 38034 ft 283 kts 304°
2026-04-12 21:23 57.39930 104.56895 38035 ft 294 kts 304°
2026-04-12 21:23 57.41174 104.53771 38034 ft 305 kts 304°
2026-04-12 21:24 57.43746 104.47303 38030 ft 318 kts 304°
2026-04-12 21:24 57.46414 104.40565 38029 ft 329 kts 304°
2026-04-12 21:25 57.49168 104.33591 38025 ft 339 kts 304°
2026-04-12 21:25 57.51993 104.26420 38019 ft 348 kts 304°
2026-04-12 21:26 57.54862 104.19115 38016 ft 355 kts 304°
2026-04-12 21:26 57.59274 104.07836 38003 ft 363 kts 304°
2026-04-12 21:27 57.62253 104.00183 38007 ft 366 kts 304°
2026-04-12 21:27 57.65253 103.92460 38002 ft 368 kts 304°
2026-04-12 21:28 57.68267 103.84672 37991 ft 371 kts 304°
2026-04-12 21:28 57.71292 103.76833 37987 ft 372 kts 304°
2026-04-12 21:29 57.74324 103.68949 37976 ft 374 kts 303°